iso_date,epoch_date,Year,Hour,Min,DOY,POS_DOY,Lat,Lon,BP,Ts,Ta,has_bp,has_ts,has_ta,BuoyID,Buoy_Type,Buoy_Owner,Logistics,Hemisphere
2020-08-07T06:00:00Z,1596780000,2020,6,0,220.25,220.25,64.381,-28.268,-999.00,9.93,-999.0,no,yes,no,300234066316060,SVPVHI,AOML,BJARNI_SAEMUN,North
2020-08-07T09:00:00Z,1596790800,2020,9,0,220.375,220.375,64.379,-28.291,-999.00,9.94,-999.0,no,yes,no,300234066316060,SVPVHI,AOML,BJARNI_SAEMUN,North
2020-08-07T12:00:00Z,1596801600,2020,12,0,220.5,220.5,64.369,-28.309,-999.00,9.96,-999.0,no,yes,no,300234066316060,SVPVHI,AOML,BJARNI_SAEMUN,North
2020-08-07T15:00:00Z,1596812400,2020,15,0,220.625,220.625,64.36,-28.317,-999.00,9.98,-999.0,no,yes,no,300234066316060,SVPVHI,AOML,BJARNI_SAEMUN,North
2020-08-07T18:00:00Z,1596823200,2020,18,0,220.75,220.75,64.353,-28.312,-999.00,9.98,-999.0,no,yes,no,300234066316060,SVPVHI,AOML,BJARNI_SAEMUN,North
2020-08-07T21:00:00Z,1596834000,2020,21,0,220.875,220.875,64.352,-28.308,-999.00,9.98,-999.0,no,yes,no,300234066316060,SVPVHI,AOML,BJARNI_SAEMUN,North
2020-08-08T00:00:00Z,1596844800,2020,0,0,221.0,221.0,64.356,-28.301,-999.00,9.98,-999.0,no,yes,no,300234066316060,SVPVHI,AOML,BJARNI_SAEMUN,North
2020-08-08T03:00:00Z,1596855600,2020,3,0,221.125,221.125,64.364,-28.292,-999.00,9.99,-999.0,no,yes,no,300234066316060,SVPVHI,AOML,BJARNI_SAEMUN,North
2020-08-08T06:00:00Z,1596866400,2020,6,0,221.25,221.25,64.38,-28.278,-999.00,9.98,-999.0,no,yes,no,300234066316060,SVPVHI,AOML,BJARNI_SAEMUN,North
2020-08-08T09:00:00Z,1596877200,2020,9,0,221.375,221.375,64.39,-28.255,-999.00,9.98,-999.0,no,yes,no,300234066316060,SVPVHI,AOML,BJARNI_SAEMUN,North
2020-08-08T12:00:00Z,1596888000,2020,12,0,221.5,221.5,64.401,-28.247,-999.00,10.0,-999.0,no,yes,no,300234066316060,SVPVHI,AOML,BJARNI_SAEMUN,North
2020-08-08T15:00:00Z,1596898800,2020,15,0,221.625,221.625,64.42,-28.255,-999.00,10.02,-999.0,no,yes,no,300234066316060,SVPVHI,AOML,BJARNI_SAEMUN,North
2020-08-08T18:00:00Z,1596909600,2020,18,0,221.75,221.75,64.437,-28.249,-999.00,10.05,-999.0,no,yes,no,300234066316060,SVPVHI,AOML,BJARNI_SAEMUN,North
2020-08-08T21:00:00Z,1596920400,2020,21,0,221.875,221.875,64.448,-28.246,-999.00,10.05,-999.0,no,yes,no,300234066316060,SVPVHI,AOML,BJARNI_SAEMUN,North
2020-08-09T00:00:00Z,1596931200,2020,0,0,222.0,222.0,64.459,-28.286,-999.00,10.04,-999.0,no,yes,no,300234066316060,SVPVHI,AOML,BJARNI_SAEMUN,North
2020-08-09T03:00:00Z,1596942000,2020,3,0,222.125,222.125,64.479,-28.344,-999.00,10.04,-999.0,no,yes,no,300234066316060,SVPVHI,AOML,BJARNI_SAEMUN,North
2020-08-09T06:00:00Z,1596952800,2020,6,0,222.25,222.25,64.497,-28.376,-999.00,10.04,-999.0,no,yes,no,300234066316060,SVPVHI,AOML,BJARNI_SAEMUN,North
2020-08-09T09:00:00Z,1596963600,2020,9,0,222.375,222.375,64.504,-28.394,-999.00,10.07,-999.0,no,yes,no,300234066316060,SVPVHI,AOML,BJARNI_SAEMUN,North
2020-08-09T12:00:00Z,1596974400,2020,12,0,222.5,222.5,64.51,-28.423,-999.00,10.32,-999.0,no,yes,no,300234066316060,SVPVHI,AOML,BJARNI_SAEMUN,North
2020-08-09T15:00:00Z,1596985200,2020,15,0,222.625,222.625,64.524,-28.452,-999.00,10.36,-999.0,no,yes,no,300234066316060,SVPVHI,AOML,BJARNI_SAEMUN,North
2020-08-09T18:00:00Z,1596996000,2020,18,0,222.75,222.75,64.539,-28.449,-999.00,10.37,-999.0,no,yes,no,300234066316060,SVPVHI,AOML,BJARNI_SAEMUN,North
2020-08-09T21:00:00Z,1597006800,2020,21,0,222.875,222.875,64.55,-28.419,-999.00,10.35,-999.0,no,yes,no,300234066316060,SVPVHI,AOML,BJARNI_SAEMUN,North
2020-08-10T00:00:00Z,1597017600,2020,0,0,223.0,223.0,64.554,-28.389,-999.00,10.24,-999.0,no,yes,no,300234066316060,SVPVHI,AOML,BJARNI_SAEMUN,North
2020-08-10T03:00:00Z,1597028400,2020,3,0,223.125,223.125,64.559,-28.384,-999.00,10.19,-999.0,no,yes,no,300234066316060,SVPVHI,AOML,BJARNI_SAEMUN,North
2020-08-10T06:00:00Z,1597039200,2020,6,0,223.25,223.25,64.576,-28.379,-999.00,10.12,-999.0,no,yes,no,300234066316060,SVPVHI,AOML,BJARNI_SAEMUN,North
2020-08-10T09:00:00Z,1597050000,2020,9,0,223.375,223.375,64.593,-28.36,-999.00,10.07,-999.0,no,yes,no,300234066316060,SVPVHI,AOML,BJARNI_SAEMUN,North
2020-08-10T12:00:00Z,1597060800,2020,12,0,223.5,223.5,64.609,-28.346,-999.00,10.01,-999.0,no,yes,no,300234066316060,SVPVHI,AOML,BJARNI_SAEMUN,North
2020-08-10T15:00:00Z,1597071600,2020,15,0,223.625,223.625,64.627,-28.343,-999.00,9.96,-999.0,no,yes,no,300234066316060,SVPVHI,AOML,BJARNI_SAEMUN,North
2020-08-10T18:00:00Z,1597082400,2020,18,0,223.75,223.75,64.637,-28.311,-999.00,10.02,-999.0,no,yes,no,300234066316060,SVPVHI,AOML,BJARNI_SAEMUN,North
2020-08-10T21:00:00Z,1597093200,2020,21,0,223.875,223.875,64.629,-28.268,-999.00,9.94,-999.0,no,yes,no,300234066316060,SVPVHI,AOML,BJARNI_SAEMUN,North
2020-08-11T00:00:00Z,1597104000,2020,0,0,224.0,224.0,64.619,-28.259,-999.00,9.85,-999.0,no,yes,no,300234066316060,SVPVHI,AOML,BJARNI_SAEMUN,North
2020-08-11T03:00:00Z,1597114800,2020,3,0,224.125,224.125,64.622,-28.277,-999.00,9.84,-999.0,no,yes,no,300234066316060,SVPVHI,AOML,BJARNI_SAEMUN,North
2020-08-11T06:00:00Z,1597125600,2020,6,0,224.25,224.25,64.629,-28.267,-999.00,9.81,-999.0,no,yes,no,300234066316060,SVPVHI,AOML,BJARNI_SAEMUN,North
2020-08-11T09:00:00Z,1597136400,2020,9,0,224.375,224.375,64.626,-28.24,-999.00,9.9,-999.0,no,yes,no,300234066316060,SVPVHI,AOML,BJARNI_SAEMUN,North
2020-08-11T12:00:00Z,1597147200,2020,12,0,224.5,224.5,64.62,-28.246,-999.00,10.03,-999.0,no,yes,no,300234066316060,SVPVHI,AOML,BJARNI_SAEMUN,North
2020-08-11T15:00:00Z,1597158000,2020,15,0,224.625,224.625,64.63,-28.244,-999.00,10.21,-999.0,no,yes,no,300234066316060,SVPVHI,AOML,BJARNI_SAEMUN,North
2020-08-11T18:00:00Z,1597168800,2020,18,0,224.75,224.75,64.639,-28.203,-999.00,10.18,-999.0,no,yes,no,300234066316060,SVPVHI,AOML,BJARNI_SAEMUN,North
2020-08-11T21:00:00Z,1597179600,2020,21,0,224.875,224.875,64.634,-28.142,-999.00,10.15,-999.0,no,yes,no,300234066316060,SVPVHI,AOML,BJARNI_SAEMUN,North
2020-08-12T00:00:00Z,1597190400,2020,0,0,225.0,225.0,64.632,-28.097,-999.00,10.05,-999.0,no,yes,no,300234066316060,SVPVHI,AOML,BJARNI_SAEMUN,North
2020-08-12T03:00:00Z,1597201200,2020,3,0,225.125,225.125,64.643,-28.075,-999.00,10.0,-999.0,no,yes,no,300234066316060,SVPVHI,AOML,BJARNI_SAEMUN,North
2020-08-12T06:00:00Z,1597212000,2020,6,0,225.25,225.25,64.663,-28.046,-999.00,9.96,-999.0,no,yes,no,300234066316060,SVPVHI,AOML,BJARNI_SAEMUN,North
2020-08-12T09:00:00Z,1597222800,2020,9,0,225.375,225.375,64.68,-28.011,-999.00,9.97,-999.0,no,yes,no,300234066316060,SVPVHI,AOML,BJARNI_SAEMUN,North
2020-08-12T12:00:00Z,1597233600,2020,12,0,225.5,225.5,64.7,-27.988,-999.00,9.95,-999.0,no,yes,no,300234066316060,SVPVHI,AOML,BJARNI_SAEMUN,North
2020-08-12T15:00:00Z,1597244400,2020,15,0,225.625,225.625,64.732,-27.962,-999.00,9.85,-999.0,no,yes,no,300234066316060,SVPVHI,AOML,BJARNI_SAEMUN,North
2020-08-12T18:00:00Z,1597255200,2020,18,0,225.75,225.75,64.76,-27.921,-999.00,9.94,-999.0,no,yes,no,300234066316060,SVPVHI,AOML,BJARNI_SAEMUN,North
2020-08-12T21:00:00Z,1597266000,2020,21,0,225.875,225.875,64.777,-27.858,-999.00,9.94,-999.0,no,yes,no,300234066316060,SVPVHI,AOML,BJARNI_SAEMUN,North
2020-08-13T00:00:00Z,1597276800,2020,0,0,226.0,226.0,64.783,-27.833,-999.00,9.92,-999.0,no,yes,no,300234066316060,SVPVHI,AOML,BJARNI_SAEMUN,North
2020-08-13T03:00:00Z,1597287600,2020,3,0,226.125,226.125,64.801,-27.829,-999.00,9.91,-999.0,no,yes,no,300234066316060,SVPVHI,AOML,BJARNI_SAEMUN,North
2020-08-13T06:00:00Z,1597298400,2020,6,0,226.25,226.25,64.827,-27.813,-999.00,9.89,-999.0,no,yes,no,300234066316060,SVPVHI,AOML,BJARNI_SAEMUN,North
2020-08-13T09:00:00Z,1597309200,2020,9,0,226.375,226.375,64.84,-27.765,-999.00,9.87,-999.0,no,yes,no,300234066316060,SVPVHI,AOML,BJARNI_SAEMUN,North
2020-08-13T12:00:00Z,1597320000,2020,12,0,226.5,226.5,64.834,-27.723,-999.00,9.88,-999.0,no,yes,no,300234066316060,SVPVHI,AOML,BJARNI_SAEMUN,North
2020-08-13T15:00:00Z,1597330800,2020,15,0,226.625,226.625,64.825,-27.699,-999.00,9.9,-999.0,no,yes,no,300234066316060,SVPVHI,AOML,BJARNI_SAEMUN,North
2020-08-13T18:00:00Z,1597341600,2020,18,0,226.75,226.75,64.83,-27.657,-999.00,9.87,-999.0,no,yes,no,300234066316060,SVPVHI,AOML,BJARNI_SAEMUN,North
2020-08-13T21:00:00Z,1597352400,2020,21,0,226.875,226.875,64.838,-27.583,-999.00,9.67,-999.0,no,yes,no,300234066316060,SVPVHI,AOML,BJARNI_SAEMUN,North
2020-08-14T00:00:00Z,1597363200,2020,0,0,227.0,227.0,64.83,-27.517,-999.00,9.62,-999.0,no,yes,no,300234066316060,SVPVHI,AOML,BJARNI_SAEMUN,North
2020-08-14T03:00:00Z,1597374000,2020,3,0,227.125,227.125,64.818,-27.484,-999.00,9.78,-999.0,no,yes,no,300234066316060,SVPVHI,AOML,BJARNI_SAEMUN,North
2020-08-14T06:00:00Z,1597384800,2020,6,0,227.25,227.25,64.817,-27.474,-999.00,9.7,-999.0,no,yes,no,300234066316060,SVPVHI,AOML,BJARNI_SAEMUN,North
2020-08-14T09:00:00Z,1597395600,2020,9,0,227.375,227.375,64.825,-27.439,-999.00,9.54,-999.0,no,yes,no,300234066316060,SVPVHI,AOML,BJARNI_SAEMUN,North
2020-08-14T12:00:00Z,1597406400,2020,12,0,227.5,227.5,64.822,-27.364,-999.00,9.57,-999.0,no,yes,no,300234066316060,SVPVHI,AOML,BJARNI_SAEMUN,North
2020-08-14T15:00:00Z,1597417200,2020,15,0,227.625,227.625,64.813,-27.315,-999.00,9.66,-999.0,no,yes,no,300234066316060,SVPVHI,AOML,BJARNI_SAEMUN,North
2020-08-14T18:00:00Z,1597428000,2020,18,0,227.75,227.75,64.82,-27.297,-999.00,9.68,-999.0,no,yes,no,300234066316060,SVPVHI,AOML,BJARNI_SAEMUN,North
2020-08-14T21:00:00Z,1597438800,2020,21,0,227.875,227.875,64.841,-27.27,-999.00,9.66,-999.0,no,yes,no,300234066316060,SVPVHI,AOML,BJARNI_SAEMUN,North
2020-08-15T00:00:00Z,1597449600,2020,0,0,228.0,228.0,64.851,-27.202,-999.00,9.6,-999.0,no,yes,no,300234066316060,SVPVHI,AOML,BJARNI_SAEMUN,North
2020-08-15T03:00:00Z,1597460400,2020,3,0,228.125,228.125,64.843,-27.17,-999.00,9.53,-999.0,no,yes,no,300234066316060,SVPVHI,AOML,BJARNI_SAEMUN,North
2020-08-15T06:00:00Z,1597471200,2020,6,0,228.25,228.25,64.842,-27.216,-999.00,9.51,-999.0,no,yes,no,300234066316060,SVPVHI,AOML,BJARNI_SAEMUN,North
2020-08-15T09:00:00Z,1597482000,2020,9,0,228.375,228.375,64.858,-27.279,-999.00,9.54,-999.0,no,yes,no,300234066316060,SVPVHI,AOML,BJARNI_SAEMUN,North
2020-08-15T12:00:00Z,1597492800,2020,12,0,228.5,228.5,64.883,-27.261,-999.00,9.55,-999.0,no,yes,no,300234066316060,SVPVHI,AOML,BJARNI_SAEMUN,North
2020-08-15T15:00:00Z,1597503600,2020,15,0,228.625,228.625,64.901,-27.224,-999.00,9.56,-999.0,no,yes,no,300234066316060,SVPVHI,AOML,BJARNI_SAEMUN,North
2020-08-15T18:00:00Z,1597514400,2020,18,0,228.75,228.75,64.918,-27.212,-999.00,9.56,-999.0,no,yes,no,300234066316060,SVPVHI,AOML,BJARNI_SAEMUN,North
2020-08-15T21:00:00Z,1597525200,2020,21,0,228.875,228.875,64.946,-27.228,-999.00,9.5,-999.0,no,yes,no,300234066316060,SVPVHI,AOML,BJARNI_SAEMUN,North
2020-08-16T00:00:00Z,1597536000,2020,0,0,229.0,229.0,64.977,-27.211,-999.00,9.5,-999.0,no,yes,no,300234066316060,SVPVHI,AOML,BJARNI_SAEMUN,North
2020-08-16T03:00:00Z,1597546800,2020,3,0,229.125,229.125,64.989,-27.214,-999.00,9.5,-999.0,no,yes,no,300234066316060,SVPVHI,AOML,BJARNI_SAEMUN,North
2020-08-16T06:00:00Z,1597557600,2020,6,0,229.25,229.25,65.003,-27.243,-999.00,9.51,-999.0,no,yes,no,300234066316060,SVPVHI,AOML,BJARNI_SAEMUN,North
2020-08-16T09:00:00Z,1597568400,2020,9,0,229.375,229.375,65.016,-27.298,-999.00,9.49,-999.0,no,yes,no,300234066316060,SVPVHI,AOML,BJARNI_SAEMUN,North
2020-08-16T12:00:00Z,1597579200,2020,12,0,229.5,229.5,65.033,-27.375,-999.00,9.52,-999.0,no,yes,no,300234066316060,SVPVHI,AOML,BJARNI_SAEMUN,North
2020-08-16T15:00:00Z,1597590000,2020,15,0,229.625,229.625,65.061,-27.418,-999.00,9.54,-999.0,no,yes,no,300234066316060,SVPVHI,AOML,BJARNI_SAEMUN,North
2020-08-16T18:00:00Z,1597600800,2020,18,0,229.75,229.75,65.084,-27.415,-999.00,9.6,-999.0,no,yes,no,300234066316060,SVPVHI,AOML,BJARNI_SAEMUN,North
2020-08-16T21:00:00Z,1597611600,2020,21,0,229.875,229.875,65.089,-27.419,-999.00,9.61,-999.0,no,yes,no,300234066316060,SVPVHI,AOML,BJARNI_SAEMUN,North
2020-08-17T00:00:00Z,1597622400,2020,0,0,230.0,230.0,65.091,-27.451,-999.00,9.61,-999.0,no,yes,no,300234066316060,SVPVHI,AOML,BJARNI_SAEMUN,North
2020-08-17T03:00:00Z,1597633200,2020,3,0,230.125,230.125,65.101,-27.456,-999.00,9.66,-999.0,no,yes,no,300234066316060,SVPVHI,AOML,BJARNI_SAEMUN,North
2020-08-17T06:00:00Z,1597644000,2020,6,0,230.25,230.25,65.11,-27.437,-999.00,9.64,-999.0,no,yes,no,300234066316060,SVPVHI,AOML,BJARNI_SAEMUN,North
2020-08-17T09:00:00Z,1597654800,2020,9,0,230.375,230.375,65.105,-27.435,-999.00,9.67,-999.0,no,yes,no,300234066316060,SVPVHI,AOML,BJARNI_SAEMUN,North
2020-08-17T12:00:00Z,1597665600,2020,12,0,230.5,230.5,65.092,-27.487,-999.00,9.79,-999.0,no,yes,no,300234066316060,SVPVHI,AOML,BJARNI_SAEMUN,North
2020-08-17T15:00:00Z,1597676400,2020,15,0,230.625,230.625,65.092,-27.548,-999.00,10.07,-999.0,no,yes,no,300234066316060,SVPVHI,AOML,BJARNI_SAEMUN,North
2020-08-17T18:00:00Z,1597687200,2020,18,0,230.75,230.75,65.105,-27.565,-999.00,10.35,-999.0,no,yes,no,300234066316060,SVPVHI,AOML,BJARNI_SAEMUN,North
2020-08-17T21:00:00Z,1597698000,2020,21,0,230.875,230.875,65.106,-27.536,-999.00,10.3,-999.0,no,yes,no,300234066316060,SVPVHI,AOML,BJARNI_SAEMUN,North
2020-08-18T00:00:00Z,1597708800,2020,0,0,231.0,231.0,65.083,-27.536,-999.00,10.34,-999.0,no,yes,no,300234066316060,SVPVHI,AOML,BJARNI_SAEMUN,North
2020-08-18T03:00:00Z,1597719600,2020,3,0,231.125,231.125,65.064,-27.591,-999.00,10.33,-999.0,no,yes,no,300234066316060,SVPVHI,AOML,BJARNI_SAEMUN,North
2020-08-18T06:00:00Z,1597730400,2020,6,0,231.25,231.25,65.066,-27.605,-999.00,10.1,-999.0,no,yes,no,300234066316060,SVPVHI,AOML,BJARNI_SAEMUN,North
2020-08-18T09:00:00Z,1597741200,2020,9,0,231.375,231.375,65.062,-27.581,-999.00,10.1,-999.0,no,yes,no,300234066316060,SVPVHI,AOML,BJARNI_SAEMUN,North
2020-08-18T12:00:00Z,1597752000,2020,12,0,231.5,231.5,65.035,-27.577,-999.00,10.28,-999.0,no,yes,no,300234066316060,SVPVHI,AOML,BJARNI_SAEMUN,North
2020-08-18T15:00:00Z,1597762800,2020,15,0,231.625,231.625,65.011,-27.632,-999.00,10.51,-999.0,no,yes,no,300234066316060,SVPVHI,AOML,BJARNI_SAEMUN,North
2020-08-18T18:00:00Z,1597773600,2020,18,0,231.75,231.75,65.007,-27.676,-999.00,10.23,-999.0,no,yes,no,300234066316060,SVPVHI,AOML,BJARNI_SAEMUN,North
2020-08-18T21:00:00Z,1597784400,2020,21,0,231.875,231.875,65.007,-27.685,-999.00,10.17,-999.0,no,yes,no,300234066316060,SVPVHI,AOML,BJARNI_SAEMUN,North
2020-08-19T00:00:00Z,1597795200,2020,0,0,232.0,232.0,64.985,-27.686,-999.00,10.08,-999.0,no,yes,no,300234066316060,SVPVHI,AOML,BJARNI_SAEMUN,North
2020-08-19T03:00:00Z,1597806000,2020,3,0,232.125,232.125,64.958,-27.73,-999.00,10.05,-999.0,no,yes,no,300234066316060,SVPVHI,AOML,BJARNI_SAEMUN,North
2020-08-19T06:00:00Z,1597816800,2020,6,0,232.25,232.25,64.95,-27.801,-999.00,10.12,-999.0,no,yes,no,300234066316060,SVPVHI,AOML,BJARNI_SAEMUN,North
2020-08-19T09:00:00Z,1597827600,2020,9,0,232.375,232.375,64.955,-27.845,-999.00,10.12,-999.0,no,yes,no,300234066316060,SVPVHI,AOML,BJARNI_SAEMUN,North
2020-08-19T12:00:00Z,1597838400,2020,12,0,232.5,232.5,64.955,-27.868,-999.00,10.15,-999.0,no,yes,no,300234066316060,SVPVHI,AOML,BJARNI_SAEMUN,North
2020-08-19T15:00:00Z,1597849200,2020,15,0,232.625,232.625,64.94,-27.891,-999.00,10.18,-999.0,no,yes,no,300234066316060,SVPVHI,AOML,BJARNI_SAEMUN,North
2020-08-19T18:00:00Z,1597860000,2020,18,0,232.75,232.75,64.931,-27.932,-999.00,10.2,-999.0,no,yes,no,300234066316060,SVPVHI,AOML,BJARNI_SAEMUN,North
2020-08-19T21:00:00Z,1597870800,2020,21,0,232.875,232.875,64.94,-27.976,-999.00,10.25,-999.0,no,yes,no,300234066316060,SVPVHI,AOML,BJARNI_SAEMUN,North
2020-08-20T00:00:00Z,1597881600,2020,0,0,233.0,233.0,64.953,-27.983,-999.00,10.24,-999.0,no,yes,no,300234066316060,SVPVHI,AOML,BJARNI_SAEMUN,North
2020-08-20T03:00:00Z,1597892400,2020,3,0,233.125,233.125,64.941,-27.982,-999.00,10.28,-999.0,no,yes,no,300234066316060,SVPVHI,AOML,BJARNI_SAEMUN,North
2020-08-20T06:00:00Z,1597903200,2020,6,0,233.25,233.25,64.928,-28.012,-999.00,10.33,-999.0,no,yes,no,300234066316060,SVPVHI,AOML,BJARNI_SAEMUN,North
2020-08-20T09:00:00Z,1597914000,2020,9,0,233.375,233.375,64.933,-28.057,-999.00,10.35,-999.0,no,yes,no,300234066316060,SVPVHI,AOML,BJARNI_SAEMUN,North
2020-08-20T12:00:00Z,1597924800,2020,12,0,233.5,233.5,64.939,-28.084,-999.00,10.41,-999.0,no,yes,no,300234066316060,SVPVHI,AOML,BJARNI_SAEMUN,North
2020-08-20T15:00:00Z,1597935600,2020,15,0,233.625,233.625,64.928,-28.11,-999.00,10.44,-999.0,no,yes,no,300234066316060,SVPVHI,AOML,BJARNI_SAEMUN,North
2020-08-20T18:00:00Z,1597946400,2020,18,0,233.75,233.75,64.911,-28.145,-999.00,10.45,-999.0,no,yes,no,300234066316060,SVPVHI,AOML,BJARNI_SAEMUN,North
2020-08-20T21:00:00Z,1597957200,2020,21,0,233.875,233.875,64.904,-28.186,-999.00,10.42,-999.0,no,yes,no,300234066316060,SVPVHI,AOML,BJARNI_SAEMUN,North
2020-08-21T00:00:00Z,1597968000,2020,0,0,234.0,234.0,64.904,-28.22,-999.00,10.36,-999.0,no,yes,no,300234066316060,SVPVHI,AOML,BJARNI_SAEMUN,North
2020-08-21T03:00:00Z,1597978800,2020,3,0,234.125,234.125,64.894,-28.232,-999.00,10.29,-999.0,no,yes,no,300234066316060,SVPVHI,AOML,BJARNI_SAEMUN,North
2020-08-21T06:00:00Z,1597989600,2020,6,0,234.25,234.25,64.875,-28.26,-999.00,10.27,-999.0,no,yes,no,300234066316060,SVPVHI,AOML,BJARNI_SAEMUN,North
2020-08-21T09:00:00Z,1598000400,2020,9,0,234.375,234.375,64.865,-28.303,-999.00,10.19,-999.0,no,yes,no,300234066316060,SVPVHI,AOML,BJARNI_SAEMUN,North
2020-08-21T12:00:00Z,1598011200,2020,12,0,234.5,234.5,64.865,-28.355,-999.00,10.18,-999.0,no,yes,no,300234066316060,SVPVHI,AOML,BJARNI_SAEMUN,North
2020-08-21T15:00:00Z,1598022000,2020,15,0,234.625,234.625,64.866,-28.384,-999.00,10.23,-999.0,no,yes,no,300234066316060,SVPVHI,AOML,BJARNI_SAEMUN,North
2020-08-21T18:00:00Z,1598032800,2020,18,0,234.75,234.75,64.854,-28.38,-999.00,10.29,-999.0,no,yes,no,300234066316060,SVPVHI,AOML,BJARNI_SAEMUN,North
2020-08-21T21:00:00Z,1598043600,2020,21,0,234.875,234.875,64.838,-28.39,-999.00,10.29,-999.0,no,yes,no,300234066316060,SVPVHI,AOML,BJARNI_SAEMUN,North
2020-08-22T00:00:00Z,1598054400,2020,0,0,235.0,235.0,64.832,-28.418,-999.00,10.27,-999.0,no,yes,no,300234066316060,SVPVHI,AOML,BJARNI_SAEMUN,North
2020-08-22T03:00:00Z,1598065200,2020,3,0,235.125,235.125,64.833,-28.418,-999.00,10.22,-999.0,no,yes,no,300234066316060,SVPVHI,AOML,BJARNI_SAEMUN,North
2020-08-22T06:00:00Z,1598076000,2020,6,0,235.25,235.25,64.824,-28.395,-999.00,10.18,-999.0,no,yes,no,300234066316060,SVPVHI,AOML,BJARNI_SAEMUN,North
2020-08-22T09:00:00Z,1598086800,2020,9,0,235.375,235.375,64.812,-28.375,-999.00,10.24,-999.0,no,yes,no,300234066316060,SVPVHI,AOML,BJARNI_SAEMUN,North
2020-08-22T12:00:00Z,1598097600,2020,12,0,235.5,235.5,64.807,-28.376,-999.00,10.42,-999.0,no,yes,no,300234066316060,SVPVHI,AOML,BJARNI_SAEMUN,North
2020-08-22T15:00:00Z,1598108400,2020,15,0,235.625,235.625,64.811,-28.36,-999.00,10.61,-999.0,no,yes,no,300234066316060,SVPVHI,AOML,BJARNI_SAEMUN,North
2020-08-22T18:00:00Z,1598119200,2020,18,0,235.75,235.75,64.815,-28.315,-999.00,10.69,-999.0,no,yes,no,300234066316060,SVPVHI,AOML,BJARNI_SAEMUN,North
2020-08-22T21:00:00Z,1598130000,2020,21,0,235.875,235.875,64.814,-28.265,-999.00,10.61,-999.0,no,yes,no,300234066316060,SVPVHI,AOML,BJARNI_SAEMUN,North
2020-08-23T00:00:00Z,1598140800,2020,0,0,236.0,236.0,64.815,-28.238,-999.00,10.56,-999.0,no,yes,no,300234066316060,SVPVHI,AOML,BJARNI_SAEMUN,North
2020-08-23T03:00:00Z,1598151600,2020,3,0,236.125,236.125,64.825,-28.225,-999.00,10.49,-999.0,no,yes,no,300234066316060,SVPVHI,AOML,BJARNI_SAEMUN,North
2020-08-23T06:00:00Z,1598162400,2020,6,0,236.25,236.25,64.833,-28.183,-999.00,10.45,-999.0,no,yes,no,300234066316060,SVPVHI,AOML,BJARNI_SAEMUN,North
2020-08-23T09:00:00Z,1598173200,2020,9,0,236.375,236.375,64.835,-28.136,-999.00,10.48,-999.0,no,yes,no,300234066316060,SVPVHI,AOML,BJARNI_SAEMUN,North
2020-08-23T12:00:00Z,1598184000,2020,12,0,236.5,236.5,64.845,-28.099,-999.00,10.53,-999.0,no,yes,no,300234066316060,SVPVHI,AOML,BJARNI_SAEMUN,North
2020-08-23T15:00:00Z,1598194800,2020,15,0,236.625,236.625,64.852,-28.065,-999.00,10.69,-999.0,no,yes,no,300234066316060,SVPVHI,AOML,BJARNI_SAEMUN,North
2020-08-23T18:00:00Z,1598205600,2020,18,0,236.75,236.75,64.855,-28.024,-999.00,10.77,-999.0,no,yes,no,300234066316060,SVPVHI,AOML,BJARNI_SAEMUN,North
2020-08-23T21:00:00Z,1598216400,2020,21,0,236.875,236.875,64.855,-27.977,-999.00,10.72,-999.0,no,yes,no,300234066316060,SVPVHI,AOML,BJARNI_SAEMUN,North
2020-08-24T00:00:00Z,1598227200,2020,0,0,237.0,237.0,64.845,-27.954,-999.00,10.71,-999.0,no,yes,no,300234066316060,SVPVHI,AOML,BJARNI_SAEMUN,North
2020-08-24T03:00:00Z,1598238000,2020,3,0,237.125,237.125,64.841,-27.961,-999.00,10.67,-999.0,no,yes,no,300234066316060,SVPVHI,AOML,BJARNI_SAEMUN,North
2020-08-24T06:00:00Z,1598248800,2020,6,0,237.25,237.25,64.842,-27.955,-999.00,10.6,-999.0,no,yes,no,300234066316060,SVPVHI,AOML,BJARNI_SAEMUN,North
2020-08-24T09:00:00Z,1598259600,2020,9,0,237.375,237.375,64.838,-27.915,-999.00,10.6,-999.0,no,yes,no,300234066316060,SVPVHI,AOML,BJARNI_SAEMUN,North
2020-08-24T12:00:00Z,1598270400,2020,12,0,237.5,237.5,64.824,-27.891,-999.00,10.66,-999.0,no,yes,no,300234066316060,SVPVHI,AOML,BJARNI_SAEMUN,North
2020-08-24T15:00:00Z,1598281200,2020,15,0,237.625,237.625,64.818,-27.906,-999.00,10.79,-999.0,no,yes,no,300234066316060,SVPVHI,AOML,BJARNI_SAEMUN,North
2020-08-24T18:00:00Z,1598292000,2020,18,0,237.75,237.75,64.816,-27.901,-999.00,10.82,-999.0,no,yes,no,300234066316060,SVPVHI,AOML,BJARNI_SAEMUN,North
2020-08-24T21:00:00Z,1598302800,2020,21,0,237.875,237.875,64.815,-27.876,-999.00,10.78,-999.0,no,yes,no,300234066316060,SVPVHI,AOML,BJARNI_SAEMUN,North
2020-08-25T00:00:00Z,1598313600,2020,0,0,238.0,238.0,64.814,-27.859,-999.00,10.75,-999.0,no,yes,no,300234066316060,SVPVHI,AOML,BJARNI_SAEMUN,North
2020-08-25T03:00:00Z,1598324400,2020,3,0,238.125,238.125,64.814,-27.858,-999.00,10.71,-999.0,no,yes,no,300234066316060,SVPVHI,AOML,BJARNI_SAEMUN,North
2020-08-25T06:00:00Z,1598335200,2020,6,0,238.25,238.25,64.81,-27.861,-999.00,10.67,-999.0,no,yes,no,300234066316060,SVPVHI,AOML,BJARNI_SAEMUN,North
2020-08-25T09:00:00Z,1598346000,2020,9,0,238.375,238.375,64.809,-27.848,-999.00,10.68,-999.0,no,yes,no,300234066316060,SVPVHI,AOML,BJARNI_SAEMUN,North
2020-08-25T12:00:00Z,1598356800,2020,12,0,238.5,238.5,64.809,-27.826,-999.00,10.69,-999.0,no,yes,no,300234066316060,SVPVHI,AOML,BJARNI_SAEMUN,North
2020-08-25T15:00:00Z,1598367600,2020,15,0,238.625,238.625,64.807,-27.81,-999.00,10.73,-999.0,no,yes,no,300234066316060,SVPVHI,AOML,BJARNI_SAEMUN,North
2020-08-25T18:00:00Z,1598378400,2020,18,0,238.75,238.75,64.808,-27.804,-999.00,10.74,-999.0,no,yes,no,300234066316060,SVPVHI,AOML,BJARNI_SAEMUN,North
2020-08-25T21:00:00Z,1598389200,2020,21,0,238.875,238.875,64.809,-27.785,-999.00,10.7,-999.0,no,yes,no,300234066316060,SVPVHI,AOML,BJARNI_SAEMUN,North
2020-08-26T00:00:00Z,1598400000,2020,0,0,239.0,239.0,64.809,-27.761,-999.00,10.7,-999.0,no,yes,no,300234066316060,SVPVHI,AOML,BJARNI_SAEMUN,North
2020-08-26T03:00:00Z,1598410800,2020,3,0,239.125,239.125,64.815,-27.753,-999.00,10.66,-999.0,no,yes,no,300234066316060,SVPVHI,AOML,BJARNI_SAEMUN,North
2020-08-26T06:00:00Z,1598421600,2020,6,0,239.25,239.25,64.814,-27.741,-999.00,10.62,-999.0,no,yes,no,300234066316060,SVPVHI,AOML,BJARNI_SAEMUN,North
2020-08-26T09:00:00Z,1598432400,2020,9,0,239.375,239.375,64.81,-27.748,-999.00,10.64,-999.0,no,yes,no,300234066316060,SVPVHI,AOML,BJARNI_SAEMUN,North
2020-08-26T12:00:00Z,1598443200,2020,12,0,239.5,239.5,64.816,-27.759,-999.00,10.67,-999.0,no,yes,no,300234066316060,SVPVHI,AOML,BJARNI_SAEMUN,North
2020-08-26T15:00:00Z,1598454000,2020,15,0,239.625,239.625,64.831,-27.744,-999.00,10.68,-999.0,no,yes,no,300234066316060,SVPVHI,AOML,BJARNI_SAEMUN,North
2020-08-26T18:00:00Z,1598464800,2020,18,0,239.75,239.75,64.829,-27.697,-999.00,10.67,-999.0,no,yes,no,300234066316060,SVPVHI,AOML,BJARNI_SAEMUN,North
2020-08-26T21:00:00Z,1598475600,2020,21,0,239.875,239.875,64.816,-27.678,-999.00,10.65,-999.0,no,yes,no,300234066316060,SVPVHI,AOML,BJARNI_SAEMUN,North
2020-08-27T00:00:00Z,1598486400,2020,0,0,240.0,240.0,64.821,-27.676,-999.00,10.63,-999.0,no,yes,no,300234066316060,SVPVHI,AOML,BJARNI_SAEMUN,North